Terug naar catalogus

STARLINK-30760

ActiefCommunicatieVLEO
NORAD 58187·PAYLOAD·🇺🇸 United States

Gelanceerd Oct 30, 2023 vanaf Cape Canaveral Space Force Station

Loading…

Volgende Passages (komende 24 uur)

TLE

VersSource: CelesTrak SupGP

Epoch: Sep 15, 2026, 02:30 UTC

1 58187C 23167N   26258.10465278  .00025351  00000+0  91841-3 0  2583
2 58187  43.0026 153.7367 0001342 276.5713  62.0783 15.27558468    17

Volg STARLINK-30760 in realtime met AllMySat

Download on the App Store